Regional Weather Roundup
Issued by NWS

Home | Current Version | Previous Version | Graphics & Text | Print | Product List | Glossary On
Versions: 1 2 3 4 5 6 7 8 9 10 11 12 13 14 15 16 17 18 19 20 21 22 23 24 25 26 27 28 29 30 31 32 33 34 35 36 37 38 39 40 41 42 43 44 45 46 47 48 49 50
000
ASUS43 KDTX 061910
RWRMI
MICHIGAN HOURLY REGIONAL WEATHER ROUNDUP
NATIONAL WEATHER SERVICE DETROIT/PONTIAC MI
ISSUED BY NATIONAL WEATHER SERVICE GRAND RAPIDS MI
300 PM EDT WED MAY 06 2015

NOTE: "FAIR" INDICATES FEW OR NO CLOUDS BELOW 12,000 FEET WITH NO
SIGNIFICANT WEATHER AND/OR OBSTRUCTION TO VISIBILITY.

MIZ047>049-052>055-059>063-066>070-074>076-081>083-062000-
SOUTHEAST LOWER MICHIGAN

CITY           SKY/WX    TMP DP  RH WIND       PRES   REMARKS
ADRIAN         CLOUDY    61  57  87 E7        30.23F FOG
ALMA           SUNNY     70  58  66 E6        30.20F
ANN ARBOR      MOSUNNY   66  58  75 VRB3      30.22F
BAD AXE        MOSUNNY   68  53  59 SE3       30.23F
DETROIT CITY   MOSUNNY   66  57  72 E6        30.22F
DETROIT        PTSUNNY   69  58  67 E6        30.22F
FLINT          MOSUNNY   70  57  63 CALM      30.21F
GROSSE ILE     CLOUDY    59  55  88 S6        30.22F FOG
HILLSDALE      MOSUNNY   66  62  84 E7        30.21F FOG
HOWELL         PTSUNNY   70  58  66 E6        30.21F

CITY           SKY/WX    TMP DP  RH WIND       PRES   REMARKS
JACKSON        SUNNY     67  59  75 SE7       30.21S
LANSING        MOSUNNY   68  58  70 SE6       30.21F HAZE
MASON          MOSUNNY   67  60  77 S5        30.21F HAZE
MONROE         PTSUNNY   63  55  77 CALM      30.21F HAZE
MT. CLEMENS    PTSUNNY   67  58  73 SE5       30.21F HAZE
PONTIAC        PTSUNNY   69  57  65 VRB3      30.21F
PORT HOPE        N/A     46  41  82 E6        30.24F
PORT HURON     PTSUNNY   68  57  68 SE3       30.23F
TRI CITIES     CLOUDY    69  52  54 E7        30.22F
YPSILANTI      MOSUNNY   72  58  61 CALM      30.22F
$$
MIZ043>046-050>051-056>058-064>065-071>073-077>080-062000-
SOUTHWEST LOWER MICHIGAN

CITY           SKY/WX    TMP DP  RH WIND       PRES   REMARKS
BATTLE CREEK   SUNNY     70  60  70 SE7       30.19F
BENTON HARBOR  SUNNY     74  61  63 W7        30.16S
BIG RAPIDS     SUNNY     70  55  57 E7        30.18F
COLDWATER      MOSUNNY   68  61  76 SE3       30.19F
HOLLAND        SUNNY     75  62  64 E7        30.17F
GRAND RAPIDS   MOSUNNY   69  59  70 E9        30.18F
KALAMAZOO      MOSUNNY   74  61  63 VRB3      30.18F
MARSHALL       SUNNY     70  60  71 E3        30.18F
MOUNT PLEASANT MOSUNNY   70  55  57 E3        30.20F
MUSKEGON       PTSUNNY   76  59  55 VRB3      30.17F
STURGIS        SUNNY     72  63  73 E3        30.18F
$$
MIZ016>042-062000-
NORTHERN LOWER MICHIGAN

CITY           SKY/WX    TMP DP  RH WIND       PRES   REMARKS
ALPENA         SUNNY     64  44  48 E15       30.24F
BEAVER ISLAND  CLOUDY    65  31  28 E8        30.21F
BELLAIRE       MOSUNNY   73  48  40 S3        30.19F
CADILLAC       MOSUNNY   69  55  59 SE6       30.19F
CHARLEVOIX     CLOUDY    58  36  43 N7        30.24F
GAYLORD        PTSUNNY   71  40  32 S10       30.20F
HOUGHTON LAKE  PTSUNNY   67  50  54 S7        30.22F
MANISTEE       CLOUDY    64  48  55 NW9       30.20R
OSCODA         PTSUNNY   56  46  68 E8        30.25F
PELLSTON       MOSUNNY   72  40  31 E14       30.20F
TRAVERSE CITY  PTSUNNY   69  49  48 N8        30.18F
LUDINGTON      PTSUNNY   71  58  64 NW5       30.19R
$$
MIZ007>008-015-062000-
EASTERN UPPER MICHIGAN

CITY           SKY/WX    TMP DP  RH WIND       PRES   REMARKS
KINROSS        MOSUNNY   68  34  28 SE9G20    30.22F
MACKINAC ISLAN SUNNY     52  42  68 E14G22    30.23F
NEWBERRY       SUNNY     70  13  11 SW8       30.19F
S. S. MARIE    MOSUNNY   69  37  30 SE12      30.21F
$$
MIZ004>006-011>014-085-062000-
CENTRAL UPPER MICHIGAN

CITY           SKY/WX    TMP DP  RH WIND       PRES   REMARKS
MANISTIQUE     MOSUNNY   63  36  36 SE9       30.21F
ESCANABA       MOSUNNY   57  36  44 SE9       30.20F
MENOMINEE      PTSUNNY   57  43  58 SE6       30.20R
$$
MIZ001>003-009>011-084-062000-
WESTERN UPPER MICHIGAN

CITY           SKY/WX    TMP DP  RH WIND       PRES   REMARKS
IRON MOUNTAIN  PTSUNNY   67  47  48 S8        30.15F
HOUGHTON       MOSUNNY   67  30  25 E8        30.14F
COPPER HARBOR    N/A     67  27  22 SW9G20    30.14F
IRONWOOD       CLOUDY    64  54  68 SE12      30.07F
$$

ABBREVIATIONS USED IN REMARKS
   TC - TEMPERATURE IN CELSIUS
  WCI - WIND CHILL INDEX
   HX - HEAT INDEX
  VSB - VISIBILITY



USA.gov is the U.S. government's official web portal to all federal, state and local government web resources and services.